| time (UTC) | temp C | wind direction | speed KPH | gust KPH | rain 1hr cm | rain 24hr cm | rain mn cm | humidity % | barometer mb |
| 20260906140046 | 11 | 0 | 0.0 | 0.0 | 0.00 | 0.00 | 0.00 | 87 | 1013.3 |
| 20260906134545 | 11 | 0 | 0.0 | 0.0 | 0.00 | 0.00 | 0.00 | 87 | 1013.2 |
| 20260906133041 | 11 | 0 | 0.0 | 0.0 | 0.00 | 0.00 | 0.00 | 87 | 1013.1 |
| 20260906131549 | 11 | 0 | 0.0 | 0.0 | 0.00 | 0.00 | 0.00 | 87 | 1013.0 |
| 20260906130051 | 11 | 0 | 0.0 | 0.0 | 0.00 | 0.00 | 0.00 | 87 | 1013.0 |
| 20260906124544 | 11 | 0 | 0.0 | 0.0 | 0.00 | 0.00 | 0.00 | 87 | 1012.9 |
| 20260906123049 | 11 | 0 | 0.0 | 0.0 | 0.00 | 0.00 | 0.00 | 86 | 1012.9 |
| 20260906121555 | 11 | 0 | 0.0 | 0.0 | 0.00 | 0.00 | 0.00 | 86 | 1012.9 |
| 20260906120042 | 11 | 0 | 0.0 | 0.0 | 0.00 | 0.00 | 0.00 | 86 | 1012.9 |
| 20260906114551 | 11 | 0 | 0.0 | 0.0 | 0.00 | 0.00 | 0.00 | 85 | 1013.0 |
| 20260906113055 | 11 | 0 | 0.0 | 0.0 | 0.00 | 0.00 | 0.00 | 85 | 1012.9 |
| 20260906111543 | 11 | 0 | 0.0 | 0.0 | 0.00 | 0.00 | 0.00 | 84 | 1012.8 |
| 20260906110041 | 11 | 0 | 0.0 | 0.0 | 0.00 | 0.00 | 0.00 | 83 | 1012.8 |
| 20260906104541 | 12 | 0 | 0.0 | 0.0 | 0.00 | 0.00 | 0.00 | 83 | 1012.6 |
| 20260906103048 | 12 | 0 | 0.0 | 0.0 | 0.00 | 0.00 | 0.00 | 82 | 1012.7 |
| 20260906101546 | 12 | 0 | 0.0 | 0.0 | 0.00 | 0.00 | 0.00 | 81 | 1012.6 |
| 20260906100041 | 12 | 0 | 0.0 | 0.0 | 0.00 | 0.00 | 0.00 | 81 | 1012.6 |
| 20260906094542 | 12 | 0 | 0.0 | 0.0 | 0.00 | 0.00 | 0.00 | 80 | 1012.5 |
| 20260906093049 | 13 | 0 | 0.0 | 0.0 | 0.00 | 0.00 | 0.00 | 80 | 1012.6 |
| 20260906091543 | 13 | 0 | 0.0 | 0.0 | 0.00 | 0.00 | 0.00 | 80 | 1012.6 |
| 20260906090043 | 13 | 0 | 0.0 | 0.0 | 0.00 | 0.00 | 0.00 | 79 | 1012.8 |
| 20260906084549 | 13 | 0 | 0.0 | 0.0 | 0.00 | 0.00 | 0.00 | 79 | 1012.8 |
| 20260906083048 | 13 | 0 | 0.0 | 0.0 | 0.00 | 0.00 | 0.00 | 79 | 1012.9 |
| 20260906081548 | 13 | 0 | 0.0 | 0.0 | 0.00 | 0.00 | 0.00 | 79 | 1012.9 |
| 20260906080043 | 13 | 0 | 0.0 | 0.0 | 0.00 | 0.00 | 0.00 | 77 | 1013.0 |
| 20260906074607 | 13 | 0 | 0.0 | 0.0 | 0.00 | 0.00 | 0.00 | 76 | 1012.9 |
| 20260906073050 | 14 | 0 | 0.0 | 0.0 | 0.00 | 0.00 | 0.00 | 76 | 1013.0 |
| 20260906071544 | 15 | 0 | 0.0 | 0.0 | 0.00 | 0.00 | 0.00 | 74 | 1013.1 |
| 20260906070040 | 15 | 0 | 0.0 | 0.0 | 0.00 | 0.00 | 0.00 | 73 | 1013.1 |
| 20260906064548 | 15 | 0 | 0.0 | 0.0 | 0.00 | 0.00 | 0.00 | 72 | 1013.1 |
| 20260906063041 | 16 | 0 | 0.0 | 0.0 | 0.00 | 0.00 | 0.00 | 70 | 1013.1 |
| 20260906061555 | 16 | 0 | 0.0 | 0.0 | 0.00 | 0.00 | 0.00 | 69 | 1013.2 |
| 20260906060048 | 16 | 0 | 0.0 | 0.0 | 0.00 | 0.00 | 0.00 | 67 | 1013.3 |
| 20260906054543 | 17 | 0 | 0.0 | 0.0 | 0.00 | 0.00 | 0.00 | 66 | 1013.2 |
| 20260906053041 | 17 | 0 | 0.0 | 0.0 | 0.00 | 0.00 | 0.00 | 62 | 1013.2 |
| 20260906051559 | 18 | 0 | 0.0 | 0.0 | 0.00 | 0.00 | 0.00 | 62 | 1013.0 |
| 20260906050049 | 18 | 0 | 0.0 | 0.0 | 0.00 | 0.00 | 0.00 | 59 | 1013.0 |
| 20260906044541 | 19 | 0 | 0.0 | 0.0 | 0.00 | 0.00 | 0.00 | 54 | 1013.0 |
| 20260906043041 | 19 | 0 | 0.0 | 0.0 | 0.00 | 0.00 | 0.00 | 55 | 1012.9 |
| 20260906041547 | 20 | 0 | 0.0 | 0.0 | 0.00 | 0.00 | 0.00 | 56 | 1012.8 |
| 20260906040046 | 20 | 0 | 0.0 | 0.0 | 0.00 | 0.00 | 0.00 | 53 | 1012.6 |
| 20260906034551 | 22 | 0 | 0.0 | 0.0 | 0.00 | 0.00 | 0.00 | 51 | 1012.4 |
| 20260906033052 | 22 | 0 | 0.0 | 4.8 | 0.00 | 0.00 | 0.00 | 41 | 1012.2 |
| 20260906031554 | 23 | 0 | 0.0 | 0.0 | 0.00 | 0.00 | 0.00 | 41 | 1012.1 |
| 20260906030046 | 24 | 0 | 0.0 | 4.8 | 0.00 | 0.00 | 0.00 | 41 | 1012.0 |
| 20260906024548 | 25 | 182 | 0.0 | 6.4 | 0.00 | 0.00 | 0.00 | 39 | 1011.9 |
| 20260906023041 | 25 | 0 | 1.6 | 8.0 | 0.00 | 0.00 | 0.00 | 39 | 1011.9 |
| 20260906021542 | 26 | 182 | 1.6 | 8.0 | 0.00 | 0.00 | 0.00 | 38 | 1012.0 |
| 20260906020057 | 27 | 182 | 3.2 | 8.0 | 0.00 | 0.00 | 0.00 | 36 | 1012.0 |
| 20260906014547 | 27 | 0 | 0.0 | 3.2 | 0.00 | 0.00 | 0.00 | 36 | 1012.0 |
| 20260906013042 | 27 | 182 | 3.2 | 11.3 | 0.00 | 0.00 | 0.00 | 35 | 1011.9 |
| 20260906011547 | 27 | 182 | 1.6 | 9.7 | 0.00 | 0.00 | 0.00 | 35 | 1012.0 |
| 20260906010050 | 27 | 0 | 0.0 | 6.4 | 0.00 | 0.00 | 0.00 | 34 | 1012.1 |
| 20260906004544 | 27 | 0 | 0.0 | 4.8 | 0.00 | 0.00 | 0.00 | 36 | 1012.1 |
| 20260906003043 | 27 | 0 | 0.0 | 6.4 | 0.00 | 0.00 | 0.00 | 35 | 1012.3 |
| 20260906001548 | 27 | 182 | 0.0 | 4.8 | 0.00 | 0.00 | 0.00 | 35 | 1012.2 |
| 20260906000050 | 27 | 182 | 0.0 | 8.0 | 0.00 | 0.00 | 0.00 | 34 | 1012.2 |
| 20260905234545 | 28 | 182 | 0.0 | 14.5 | 0.00 | 0.00 | 0.00 | 33 | 1012.3 |
| 20260905233050 | 28 | 183 | 0.0 | 9.7 | 0.00 | 0.00 | 0.00 | 33 | 1012.3 |
| 20260905231547 | 28 | 0 | 0.0 | 9.7 | 0.00 | 0.00 | 0.00 | 34 | 1012.3 |
| 20260905230049 | 27 | 166 | 4.8 | 11.3 | 0.00 | 0.00 | 0.00 | 36 | 1012.5 |
| 20260905224602 | 28 | 0 | 3.2 | 9.7 | 0.00 | 0.00 | 0.00 | 33 | 1012.7 |
| 20260905223048 | 27 | 0 | 0.0 | 4.8 | 0.00 | 0.00 | 0.00 | 34 | 1012.9 |
| 20260905221556 | 28 | 196 | 0.0 | 12.9 | 0.00 | 0.00 | 0.00 | 35 | 1012.9 |
| 20260905220103 | 27 | 201 | 1.6 | 9.7 | 0.00 | 0.00 | 0.00 | 35 | 1012.9 |
| 20260905214547 | 28 | 201 | 0.0 | 14.5 | 0.00 | 0.00 | 0.00 | 34 | 1013.2 |
| 20260905213046 | 28 | 208 | 1.6 | 8.0 | 0.00 | 0.00 | 0.00 | 36 | 1013.2 |
| 20260905211543 | 27 | 208 | 1.6 | 9.7 | 0.00 | 0.00 | 0.00 | 37 | 1013.4 |
| 20260905210054 | 26 | 207 | 3.2 | 9.7 | 0.00 | 0.00 | 0.00 | 37 | 1013.5 |
| 20260905204549 | 26 | 212 | 1.6 | 8.0 | 0.00 | 0.00 | 0.00 | 35 | 1013.6 |
| 20260905203103 | 26 | 212 | 3.2 | 8.0 | 0.00 | 0.00 | 0.00 | 36 | 1013.8 |
| 20260905201545 | 26 | 214 | 3.2 | 9.7 | 0.00 | 0.00 | 0.00 | 37 | 1013.6 |
| 20260905200053 | 26 | 0 | 0.0 | 11.3 | 0.00 | 0.00 | 0.00 | 36 | 1013.8 |
| 20260905194545 | 26 | 215 | 4.8 | 11.3 | 0.00 | 0.00 | 0.00 | 40 | 1013.9 |
| 20260905193043 | 26 | 210 | 4.8 | 11.3 | 0.00 | 0.00 | 0.00 | 39 | 1014.0 |
| 20260905191548 | 26 | 209 | 3.2 | 9.7 | 0.00 | 0.00 | 0.00 | 39 | 1014.1 |
| 20260905190048 | 25 | 0 | 1.6 | 11.3 | 0.00 | 0.00 | 0.00 | 39 | 1014.2 |
| 20260905184545 | 25 | 215 | 1.6 | 9.7 | 0.00 | 0.00 | 0.00 | 41 | 1014.2 |
| 20260905183055 | 25 | 0 | 1.6 | 8.0 | 0.00 | 0.00 | 0.00 | 41 | 1014.2 |
| 20260905181602 | 26 | 206 | 1.6 | 9.7 | 0.00 | 0.00 | 0.00 | 45 | 1014.0 |
| 20260905180042 | 25 | 215 | 0.0 | 8.0 | 0.00 | 0.00 | 0.00 | 46 | 1014.1 |
| 20260905174549 | 24 | 0 | 0.0 | 8.0 | 0.00 | 0.00 | 0.00 | 48 | 1014.0 |
| 20260905173045 | 23 | 220 | 1.6 | 6.4 | 0.00 | 0.00 | 0.00 | 50 | 1014.0 |
| 20260905171545 | 23 | 219 | 1.6 | 4.8 | 0.00 | 0.00 | 0.00 | 51 | 1014.0 |
| 20260905170042 | 22 | 220 | 0.0 | 3.2 | 0.00 | 0.00 | 0.00 | 53 | 1013.9 |
| 20260905164548 | 22 | 0 | 0.0 | 3.2 | 0.00 | 0.00 | 0.00 | 55 | 1013.9 |
| 20260905163047 | 20 | 0 | 0.0 | 0.0 | 0.00 | 0.00 | 0.00 | 58 | 1013.8 |
| 20260905161541 | 19 | 0 | 0.0 | 0.0 | 0.00 | 0.00 | 0.00 | 62 | 1013.9 |
| 20260905160115 | 18 | 0 | 0.0 | 1.6 | 0.00 | 0.00 | 0.00 | 67 | 1013.9 |
| 20260905154549 | 16 | 0 | 0.0 | 0.0 | 0.00 | 0.00 | 0.00 | 72 | 1013.8 |
| 20260905153044 | 15 | 0 | 0.0 | 1.6 | 0.00 | 0.00 | 0.00 | 81 | 1014.1 |
| 20260905151546 | 12 | 0 | 0.0 | 1.6 | 0.00 | 0.00 | 0.00 | 92 | 1014.0 |
| 20260905150048 | 10 | 0 | 0.0 | 0.0 | 0.00 | 0.00 | 0.00 | 91 | 1014.0 |
| 20260905144549 | 10 | 0 | 0.0 | 0.0 | 0.00 | 0.00 | 0.00 | 91 | 1014.0 |
| 20260905143046 | 9 | 0 | 0.0 | 0.0 | 0.00 | 0.00 | 0.00 | 91 | 1014.0 |
| 20260905141543 | 8 | 0 | 0.0 | 0.0 | 0.00 | 0.00 | 0.00 | 90 | 1013.9 |